Temperature
18 19 19 20 20 19 18 18 18 19 18 19 18 17 17 18 18 18 18 19 19 19 19 18 18 18 18 18 17 17 17 17 16 16 16 16 16 16 16 16 16 16 16 16
18 19 19 20 20 20 19 19 19 19 19 18 17 17 17 17 17 17 18 18 19 19 18 18 18 18 18 18 18 17 17 17 17 16 16 16 16 16 16 16 16 16 16 15
17 18 19 19 19 19 19 19 19 19 19 17 16 16 16 16 16 17 17 18 18 18 18 18 18 18 18 17 17 17 17 16 16 16 16 16 16 16 16 16 16 16 15 15
15 17 17 18 18 19 19 19 18 18 17 16 15 15 15 16 16 16 17 17 17 18 18 18 18 17 17 17 16 16 16 16 16 16 15 15 15 15 15 15 15 15 15 14
14 15 16 18 18 17 18 17 17 16 16 15 14 14 13 14 15 16 16 16 16 17 17 17 17 16 16 16 16 15 15 15 15 15 15 15 15 15 15 14 14 14 14 13
13 15 16 17 17 17 17 17 16 16 15 14 15 15 14 13 14 15 15 15 15 16 16 15 15 16 16 15 15 15 14 14 14 14 14 14 14 14 13 13 13 13 13 12
14 14 15 16 16 16 17 17 15 15 15 14 14 14 13 13 13 14 14 14 15 15 15 15 15 15 15 15 14 14 14 14 13 13 13 13 13 13 12 12 12 12 11 11
13 14 14 15 15 15 15 14 14 14 15 14 13 13 13 13 13 13 13 13 14 14 14 14 14 14 14 13 13 13 13 13 13 12 12 12 12 11 11 11 11 11 10 10
12 13 13 14 14 14 14 14 14 14 14 14 12 12 12 12 12 13 13 13 13 13 13 13 13 13 13 12 12 12 12 12 12 11 11 11 11 11 11 10 10 10 10 9
12 13 13 14 14 14 14 14 14 14 14 14 12 12 12 12 12 12 12 12 13 13 12 12 12 12 12 12 11 11 11 11 11 11 11 10 10 10 10 10 10 9 9 9
12 12 13 13 13 13 13 13 13 13 13 13 12 12 12 11 11 11 12 12 12 12 12 11 11 11 11 11 11 11 11 10 10 10 10 10 10 9 9 9 9 9 8 8
13 13 12 13 13 13 13 13 13 12 12 12 12 12 11 11 11 11 11 11 11 11 11 11 11 10 10 10 10 10 10 10 10 10 9 9 9 9 8 8 8 8 7 7
13 13 12 12 13 13 13 12 12 12 12 12 11 12 11 11 11 11 11 11 11 10 10 10 10 10 10 10 10 10 10 9 9 9 9 8 8 8 8 7 7 7 6 6
13 12 12 12 12 12 12 12 12 12 11 11 11 11 11 11 11 11 10 10 10 10 10 10 10 10 9 9 9 9 9 9 8 8 8 8 7 7 7 6 6 6 5 5
12 12 12 11 11 11 11 11 11 11 11 11 11 11 11 11 11 10 10 10 10 10 9 9 9 9 9 9 9 9 8 8 8 8 7 7 7 6 6 5 5 5 4 4
11 11 11 11 11 11 11 11 11 11 11 11 11 11 11 11 10 10 10 10 10 9 9 9 9 9 8 8 8 8 8 7 7 7 6 6 6 5 5 4 4 3 3 2
11 11 11 11 11 11 11 11 11 11 11 11 11 11 11 10 10 10 9 9 9 9 9 9 8 8 8 8 7 7 7 6 6 6 5 5 5 4 4 3 3 2 2 1
12 12 12 12 11 11 11 11 11 11 11 11 11 11 10 10 10 9 9 9 9 9 8 8 8 8 7 7 7 6 6 6 5 5 4 4 4 3 3 2 2 1 1 1
12 12 12 12 12 12 11 11 11 11 11 11 11 10 10 10 10 9 9 9 9 8 8 7 7 7 7 6 6 6 5 5 5 4 4 3 3 2 2 2 1 1 0 0
12 12 12 12 12 12 11 11 11 11 11 11 10 10 10 9 9 9 9 8 8 8 7 7 7 6 6 6 5 5 5 4 4 3 3 2 2 2 1 1 1 0 0 -0
12 12 12 12 11 11 11 11 11 11 10 10 10 10 10 9 9 9 8 8 7 7 7 6 6 6 5 5 5 4 4 3 3 3 2 2 1 1 1 0 0 0 -0 -0
12 12 11 11 11 11 11 11 11 10 10 10 10 9 9 9 8 8 8 7 7 6 6 6 5 5 5 4 4 3 3 3 2 2 2 1 1 1 0 0 -0 -0 -0 -1
11 11 11 11 11 11 10 10 10 10 10 9 9 9 9 8 8 8 7 7 6 6 5 5 5 4 4 4 3 3 3 2 2 2 1 1 1 0 0 -0 -0 -0 -1 -1
11 11 10 10 10 10 10 9 9 9 9 9 8 8 8 8 7 7 6 6 6 5 5 4 4 4 3 3 3 2 2 2 1 1 1 1 0 0 -0 -0 -0 -1 -1 -1
10 10 10 10 10 9 9 9 9 9 8 8 8 7 7 7 7 6 6 5 5 4 4 4 4 3 3 3 2 2 2 2 1 1 1 0 0 -0 -0 -0 -1 -1 -1 -1
10 9 9 9 9 9 9 9 8 8 8 7 7 7 7 6 6 6 5 5 4 4 4 3 3 3 3 2 2 2 2 1 1 1 1 0 0 -0 -0 -0 -1 -1 -1 -1
9 9 9 9 8 8 8 8 8 7 7 7 7 6 6 6 5 5 5 4 4 4 3 3 3 3 2 2 2 2 1 1 1 1 1 0 0 0 -0 -0 -1 -1 -1 -1
Wind_Speed
6 6 5 6 7 7 8 9 9 9 8 9 7 6 5 6 6 7 6 7 7 6 6 6 7 7 7 7 7 7 7 6 6 5 5 4 4 4 4 4 4 3 3 3
4 6 6 6 8 9 9 6 7 6 8 6 2 4 5 6 8 8 7 7 7 6 6 6 7 7 7 7 8 8 8 7 5 5 4 4 3 3 3 3 2 2 2 2
4 5 2 7 9 10 7 6 8 10 9 4 3 5 6 6 8 8 7 7 7 6 5 5 5 6 7 6 7 7 7 6 5 5 5 4 4 3 3 2 3 3 3 3
3 1 7 9 3 4 6 6 7 6 5 6 6 6 5 4 7 8 7 7 7 6 6 5 6 6 7 8 8 7 7 6 6 6 5 5 5 4 4 4 5 5 5 6
4 5 7 5 3 3 4 5 4 6 6 8 11 8 6 5 7 8 8 7 7 7 8 8 8 8 10 10 9 8 7 7 6 6 6 6 6 6 5 6 7 6 6 7
4 4 7 7 3 1 2 5 4 6 9 11 8 5 4 5 9 11 10 10 9 10 11 10 8 9 12 11 10 8 8 7 7 7 8 8 7 7 6 7 7 7 8 8
5 6 7 5 2 1 5 6 2 5 7 7 4 5 10 11 10 11 11 11 11 13 12 9 9 12 14 12 10 8 8 9 9 9 9 8 8 7 7 8 8 8 9 8
3 5 7 4 2 3 4 2 1 4 6 9 12 15 15 14 12 13 13 12 12 13 12 10 10 14 15 12 8 9 10 11 10 9 8 8 9 8 7 8 9 7 7 7
6 6 4 3 4 5 2 1 1 4 8 14 16 15 15 14 12 12 13 12 11 13 13 11 10 12 14 8 8 10 11 10 9 9 8 7 8 8 6 6 6 5 5 5
4 5 5 6 5 4 2 3 4 8 11 14 17 17 15 13 11 12 12 12 11 13 14 11 10 10 9 8 8 11 11 9 8 9 8 8 7 6 5 5 5 4 4 3
4 5 5 4 3 2 2 6 10 11 12 14 17 17 16 14 12 11 11 10 11 12 12 10 9 9 8 7 9 11 10 8 8 8 8 8 8 7 6 5 3 4 3 3
4 4 2 3 3 1 6 9 12 14 14 12 14 16 16 14 12 12 11 11 11 11 11 10 9 9 7 7 8 10 8 7 6 6 6 7 7 8 13 11 12 11 9 6
3 0 1 2 4 6 8 10 12 14 15 15 13 15 16 13 11 12 11 11 11 10 10 9 9 8 6 6 8 9 7 6 5 5 6 5 5 6 6 8 11 12 11 11
0 2 3 5 7 10 13 15 16 16 15 14 14 15 15 14 12 12 11 10 10 10 9 9 9 7 5 6 8 8 7 7 6 5 5 5 5 5 5 5 5 5 7 9
7 7 8 9 11 12 14 16 17 16 15 15 14 14 14 14 13 11 10 10 11 10 9 8 8 6 5 7 8 8 6 5 5 5 5 5 5 5 5 5 4 4 4 5
10 11 12 13 13 13 14 15 16 15 14 14 13 13 13 13 12 11 9 9 10 9 7 7 6 4 4 7 8 6 6 9 8 6 6 5 5 5 4 4 4 3 3 4
9 9 10 12 12 12 12 13 13 13 13 13 13 13 13 13 12 10 9 8 9 7 6 6 5 4 5 6 7 5 5 6 9 7 5 5 4 4 3 3 2 2 2 3
9 8 9 11 12 13 12 12 12 12 11 12 12 12 12 11 11 9 8 8 9 7 5 4 4 5 5 6 6 5 5 5 5 5 4 4 4 3 3 2 2 2 2 3
12 11 10 11 11 11 11 11 10 10 10 10 11 10 9 9 8 8 8 8 8 5 3 3 6 6 5 5 6 5 5 5 5 4 4 4 4 3 2 2 2 2 3 3
12 11 12 11 11 11 11 10 10 9 9 10 11 10 9 8 8 8 8 6 3 2 3 4 5 5 5 5 7 5 5 5 5 4 4 3 3 2 2 2 2 2 3 3
11 11 11 11 10 9 9 9 9 9 7 8 9 9 8 7 7 7 7 5 2 3 4 6 5 4 4 5 6 5 5 4 4 3 3 2 2 2 2 2 2 2 2 3
9 10 11 10 10 9 7 7 8 8 8 7 8 8 8 8 7 6 5 4 3 5 5 4 4 5 6 6 4 4 4 4 3 3 2 2 2 2 2 2 2 2 2 3
9 9 10 10 9 8 8 7 7 7 7 6 7 7 7 6 5 5 4 2 3 6 5 4 5 8 8 6 4 4 4 4 3 3 2 2 2 2 1 1 2 2 2 3
9 9 8 8 8 9 8 6 6 6 7 6 6 6 7 6 4 3 4 6 7 7 5 5 8 8 7 4 4 4 3 3 3 2 2 2 1 1 1 1 1 2 2 3
8 8 8 8 7 6 5 6 7 7 7 6 6 5 4 4 4 4 5 6 7 7 5 6 7 7 4 3 3 3 2 2 2 2 1 1 0 0 1 1 1 2 2 3
6 6 5 5 4 4 4 4 4 4 5 5 4 4 4 5 6 5 5 5 6 6 4 3 3 3 3 2 2 2 2 1 1 1 1 1 1 1 1 2 2 2 3 3
7 6 5 5 4 4 4 4 4 4 4 5 4 4 5 5 5 5 5 4 4 4 3 3 2 2 2 1 2 1 1 1 1 1 1 1 2 2 2 3 3 3 4 4
Wind_Direction
237 242 223 228 230 197 197 194 194 226 228 251 235 207 185 162 149 143 148 153 159 166 169 164 164 167 169 169 165 166 165 172 184 179 173 173 178 187 189 191 203 204 205 222
269 254 239 247 244 219 220 211 217 232 250 247 198 141 142 151 154 150 151 153 152 152 154 160 168 168 165 164 162 159 163 169 163 157 161 164 168 167 164 164 162 150 176 189
248 271 287 249 226 207 206 206 193 213 228 179 155 155 159 156 153 150 144 140 140 142 145 148 150 151 153 148 140 142 145 140 137 140 137 129 127 120 120 116 112 113 116 107
213 214 229 240 239 208 203 220 211 212 200 169 153 122 95 114 135 131 127 126 126 124 118 112 115 119 117 114 118 120 120 117 117 118 111 105 102 96 91 92 95 94 89 91
169 219 266 279 248 188 191 241 213 192 162 136 129 101 67 59 91 104 106 104 103 102 99 100 104 108 106 102 103 106 106 103 100 103 101 91 85 85 88 92 88 84 83 83
171 200 236 248 255 212 130 254 229 183 165 156 146 141 142 101 95 94 90 91 93 92 92 92 95 103 101 98 96 94 94 92 88 91 94 92 88 86 86 89 88 86 79 73
202 224 256 270 307 95 194 241 217 173 161 157 149 133 125 113 99 95 93 92 92 89 86 86 92 96 93 90 87 87 87 85 82 84 89 90 85 80 85 87 84 81 80 70
188 213 251 328 16 211 247 314 155 137 130 121 116 117 117 112 107 103 97 90 90 92 86 77 84 95 92 84 81 84 84 81 77 74 80 87 86 80 81 89 88 83 80 68
208 228 264 290 265 272 257 240 179 142 131 128 125 122 117 113 110 105 102 97 95 96 90 76 71 88 95 88 87 85 82 78 76 74 72 77 85 87 82 81 91 89 84 78
264 274 284 291 288 288 235 181 146 138 132 128 125 124 120 115 110 107 105 103 101 98 92 82 75 80 88 93 92 90 85 79 77 78 74 66 66 70 81 83 93 96 93 85
258 279 300 307 313 329 111 124 124 123 122 126 127 126 123 119 115 110 104 99 98 98 97 91 83 77 76 84 91 89 83 79 76 76 80 74 66 56 63 60 82 103 100 96
246 268 256 291 322 79 120 123 124 121 115 114 122 123 120 118 115 113 108 103 99 96 95 90 84 77 68 76 92 95 89 82 82 84 85 91 92 74 54 62 66 71 77 80
244 309 88 6 52 86 105 111 114 115 117 115 113 117 116 115 113 110 106 103 103 101 97 93 86 75 64 75 87 92 95 93 90 92 97 99 99 100 86 59 57 59 59 59
8 80 61 54 76 84 99 104 104 103 104 109 112 112 111 110 109 108 107 106 105 101 95 91 85 72 59 78 87 88 88 90 93 93 99 101 102 102 102 99 76 50 39 41
45 76 97 94 89 90 96 103 103 103 105 104 107 110 113 114 112 108 106 106 102 96 92 90 85 70 60 82 89 88 88 87 87 89 90 92 93 93 92 90 84 65 38 27
85 86 92 94 94 95 98 102 106 107 108 108 107 107 107 108 106 103 102 108 108 104 100 95 88 73 78 90 91 85 85 96 96 93 90 88 88 90 88 85 77 62 42 21
105 102 104 103 98 95 94 98 103 106 107 108 109 109 108 107 104 103 100 98 101 101 98 100 96 85 85 94 99 97 93 97 99 94 93 94 95 94 92 88 76 52 22 1
96 101 107 112 111 106 100 100 104 106 109 113 112 111 113 116 119 117 111 103 96 84 69 78 91 91 89 94 99 103 103 101 100 99 95 93 92 92 91 81 59 33 9 3
101 100 99 99 103 105 104 103 102 104 107 109 108 107 108 112 116 116 112 108 107 99 63 67 94 93 92 99 104 100 105 104 100 95 96 98 92 82 73 56 32 14 5 4
100 100 97 94 94 100 102 102 102 101 103 108 107 105 104 107 114 115 108 98 93 121 122 101 95 92 92 100 103 100 105 106 105 100 95 92 83 64 46 34 20 11 9 6
102 102 101 99 94 92 99 106 107 106 106 112 116 119 117 113 113 114 110 99 58 83 99 100 99 100 97 103 102 102 103 103 104 102 98 90 77 60 45 39 32 24 16 8
99 101 101 101 98 90 85 93 102 105 105 106 110 116 117 115 111 98 90 118 128 114 105 100 104 110 110 103 98 100 100 99 95 90 85 80 79 67 48 40 34 22 12 2
94 96 96 98 99 95 84 82 92 103 110 114 120 126 126 126 126 122 116 119 120 113 109 108 115 113 107 99 98 96 95 96 93 88 83 77 70 61 50 37 24 13 1 350
95 94 93 94 95 93 86 78 80 85 90 90 97 113 120 115 91 81 114 124 119 111 105 111 110 107 102 100 99 95 94 96 99 97 91 85 80 72 39 1 355 343 335 334
96 99 101 100 97 101 105 99 89 85 88 86 85 90 96 108 122 122 114 119 119 110 104 110 110 108 106 112 112 108 104 111 125 125 115 115 127 213 274 301 317 317 319 320
94 95 95 97 107 114 113 108 104 102 105 101 88 84 88 93 104 107 107 114 114 109 108 109 109 106 108 114 119 125 125 125 125 133 164 200 226 235 258 281 298 303 305 306
87 86 87 80 72 85 101 108 114 118 120 121 111 98 97 101 105 109 111 112 112 109 110 111 113 116 122 133 141 146 151 157 166 188 215 229 236 245 254 265 278 288 294 299
Height
1468 1464 1464 1464 1463 1465 1469 1471 1477 1470 1467 1457 1454 1454 1455 1457 1459 1461 1464 1467 1470 1473 1477 1481 1485 1489 1493 1497 1501 1505 1508 1511 1515 1518 1520 1523 1525 1528 1530 1531 1533 1534 1535 1537
1468 1461 1461 1461 1458 1458 1460 1461 1463 1461 1459 1451 1450 1452 1454 1456 1458 1460 1463 1465 1468 1472 1475 1479 1483 1487 1491 1494 1498 1502 1506 1509 1512 1515 1518 1520 1522 1524 1526 1528 1529 1530 1531 1532
1475 1464 1461 1466 1455 1453 1453 1451 1454 1457 1451 1448 1450 1451 1452 1454 1456 1458 1461 1464 1467 1470 1473 1477 1481 1485 1489 1493 1497 1500 1503 1507 1510 1512 1515 1517 1519 1521 1523 1524 1525 1526 1527 1528
1476 1471 1476 1457 1444 1444 1445 1445 1444 1444 1444 1445 1447 1450 1452 1454 1455 1457 1460 1463 1466 1469 1473 1477 1480 1484 1488 1492 1495 1498 1502 1505 1507 1510 1513 1515 1516 1518 1519 1521 1522 1523 1524 1524
1478 1476 1466 1453 1445 1444 1446 1446 1441 1442 1443 1445 1448 1451 1455 1456 1456 1458 1460 1463 1467 1470 1473 1476 1480 1484 1488 1492 1495 1498 1501 1504 1506 1509 1511 1513 1515 1516 1517 1518 1519 1520 1521 1522
1474 1473 1471 1453 1443 1441 1444 1448 1440 1440 1441 1444 1446 1452 1457 1458 1458 1460 1462 1465 1468 1471 1474 1478 1482 1485 1488 1492 1495 1499 1501 1504 1506 1509 1510 1512 1514 1515 1516 1517 1518 1519 1519 1521
1471 1470 1459 1446 1442 1443 1453 1446 1439 1438 1440 1443 1445 1448 1454 1456 1460 1462 1465 1467 1470 1473 1476 1480 1483 1486 1489 1493 1497 1500 1502 1504 1506 1509 1511 1512 1514 1515 1516 1517 1518 1519 1519 1520
1469 1469 1462 1445 1443 1445 1443 1440 1439 1439 1441 1442 1445 1449 1453 1457 1461 1464 1467 1471 1473 1475 1479 1483 1486 1489 1491 1495 1499 1501 1504 1506 1508 1510 1512 1513 1515 1516 1517 1518 1518 1519 1520 1520
1461 1458 1448 1444 1443 1441 1440 1439 1440 1440 1442 1443 1447 1451 1456 1460 1464 1467 1469 1474 1478 1480 1483 1487 1491 1493 1495 1499 1502 1504 1506 1508 1510 1512 1514 1515 1516 1517 1518 1519 1519 1519 1520 1520
1455 1449 1445 1443 1440 1439 1438 1438 1439 1441 1443 1445 1448 1453 1458 1463 1467 1471 1474 1478 1482 1485 1488 1492 1496 1498 1500 1503 1506 1507 1509 1511 1513 1514 1516 1517 1518 1519 1519 1520 1520 1520 1520 1520
1451 1447 1443 1441 1439 1438 1437 1437 1439 1443 1446 1448 1451 1456 1460 1465 1470 1475 1480 1483 1487 1490 1493 1497 1500 1503 1505 1507 1509 1510 1512 1513 1515 1517 1518 1518 1519 1520 1520 1520 1520 1520 1520 1519
1449 1445 1444 1442 1440 1439 1438 1439 1441 1444 1449 1453 1455 1459 1464 1470 1475 1480 1485 1488 1492 1496 1499 1502 1505 1507 1509 1511 1512 1513 1514 1516 1517 1518 1519 1520 1520 1520 1520 1520 1520 1520 1519 1518
1444 1443 1442 1441 1440 1440 1440 1442 1445 1448 1451 1456 1461 1465 1469 1475 1481 1485 1490 1494 1498 1501 1504 1506 1509 1511 1512 1514 1515 1516 1517 1518 1518 1519 1520 1520 1520 1520 1520 1520 1520 1519 1518 1516
1443 1442 1442 1442 1442 1443 1443 1446 1449 1453 1458 1462 1466 1471 1475 1481 1486 1490 1495 1499 1503 1505 1508 1510 1512 1514 1515 1516 1517 1518 1519 1519 1519 1520 1520 1520 1520 1520 1520 1519 1519 1517 1516 1515
1445 1444 1445 1446 1447 1448 1450 1452 1455 1459 1464 1469 1473 1477 1482 1486 1491 1496 1500 1504 1507 1509 1511 1513 1515 1516 1517 1518 1518 1519 1519 1520 1520 1520 1520 1520 1520 1519 1519 1518 1517 1516 1515 1513
1449 1449 1450 1451 1453 1455 1457 1459 1462 1466 1471 1475 1479 1484 1488 1492 1496 1500 1504 1507 1510 1512 1514 1516 1517 1518 1518 1519 1519 1519 1520 1520 1520 1520 1520 1519 1519 1519 1518 1517 1516 1515 1513 1512
1452 1454 1456 1457 1459 1462 1464 1467 1469 1473 1477 1481 1485 1489 1493 1497 1500 1504 1507 1510 1512 1514 1516 1518 1518 1519 1519 1519 1519 1519 1519 1520 1520 1519 1519 1519 1519 1518 1517 1516 1515 1514 1513 1511
1457 1459 1461 1463 1465 1468 1471 1474 1477 1481 1484 1487 1491 1494 1498 1501 1503 1506 1509 1512 1514 1516 1517 1518 1519 1519 1519 1519 1519 1519 1519 1519 1519 1519 1519 1518 1518 1517 1516 1515 1514 1513 1512 1510
1463 1466 1468 1470 1473 1475 1478 1481 1484 1487 1490 1493 1496 1499 1502 1504 1507 1509 1512 1514 1516 1517 1518 1519 1519 1520 1520 1519 1519 1519 1519 1519 1519 1518 1518 1518 1517 1516 1516 1515 1514 1512 1511 1509
1468 1471 1474 1477 1479 1482 1484 1487 1490 1493 1496 1498 1501 1503 1505 1508 1510 1512 1514 1515 1516 1517 1518 1519 1519 1520 1519 1519 1519 1519 1518 1518 1518 1518 1517 1517 1516 1516 1515 1514 1513 1512 1510 1508
1474 1477 1480 1482 1485 1487 1490 1492 1495 1497 1500 1502 1504 1506 1508 1510 1512 1513 1514 1516 1517 1518 1519 1519 1519 1519 1519 1519 1518 1518 1518 1517 1517 1517 1516 1516 1516 1515 1514 1513 1512 1511 1509 1507
1479 1482 1484 1487 1489 1492 1494 1497 1499 1501 1503 1505 1506 1508 1509 1511 1512 1514 1515 1516 1517 1518 1519 1519 1519 1519 1518 1518 1518 1518 1517 1517 1517 1516 1516 1516 1515 1515 1514 1513 1512 1510 1508 1506
1484 1486 1489 1491 1493 1495 1498 1500 1502 1503 1505 1506 1508 1509 1510 1512 1513 1514 1515 1516 1517 1518 1518 1518 1518 1518 1518 1518 1518 1518 1518 1517 1517 1517 1516 1516 1515 1514 1513 1512 1511 1509 1507 1505
1488 1490 1492 1495 1497 1498 1500 1502 1504 1505 1506 1508 1509 1510 1511 1512 1513 1514 1515 1516 1517 1517 1518 1518 1519 1519 1519 1519 1519 1518 1518 1518 1518 1517 1517 1516 1515 1514 1513 1512 1510 1508 1506 1504
1492 1494 1496 1497 1499 1501 1502 1504 1505 1506 1508 1509 1510 1511 1512 1513 1514 1514 1515 1516 1517 1518 1518 1519 1519 1520 1520 1520 1519 1519 1519 1519 1518 1518 1517 1516 1515 1514 1512 1511 1509 1507 1505 1503
1495 1496 1498 1500 1501 1502 1504 1505 1506 1507 1508 1509 1510 1511 1512 1513 1514 1515 1516 1517 1518 1519 1519 1520 1520 1520 1521 1521 1520 1520 1520 1519 1519 1518 1517 1516 1514 1513 1512 1510 1509 1506 1504 1502
1497 1498 1500 1501 1503 1504 1505 1505 1506 1507 1508 1509 1510 1511 1512 1513 1514 1515 1516 1517 1518 1519 1520 1521 1521 1521 1521 1521 1521 1521 1520 1520 1519 1518 1516 1515 1514 1513 1511 1509 1508 1505 1503 1500